St. Petersburg Airport, FL

1:24 PM EST on November 20, 2017 (GMT -0500)
Saint Petersburg-Clearwater International

Weather History for KPIE - November, 2014

Change the Weather History Date:

Saturday, November 1, 2014

  Actual Average Record
Temperature  
Mean Temperature 62 °F -  
Max Temperature 69 °F 80 °F 88 °F (1971)
Min Temperature 55 °F 66 °F 43 °F (1993)
Degree Days  
Heating Degree Days 2    
Growing Degree Days 12 (Base 50)    
Moisture  
Dew Point 46 °F    
Average Humidity 55    
Maximum Humidity 80    
Minimum Humidity 41    
Precipitation  
Precipitation 0.03 in - - ()
Sea Level Pressure  
Sea Level Pressure 30.04 in    
Wind  
Wind Speed 14 mph (NW)    
Max Wind Speed 31 mph    
Max Gust Speed 40 mph    
Visibility 10 miles    
Events Rain    
Averages and records for this station are not official NWS values.
T = Trace of Precipitation, MM = Missing Value Source: NWS Daily Summary

Daily Weather History Graph

Daily Weather History Graph

Search for Another Location

Airport or City:

Trip Planner

Search our weather history database for the weather conditions in past years. The results will help you decide how hot, cold, wet, or windy it might be!

Date:

Astronomy

Nov. 01, 2014 Rise Set
Actual Time 7:41 AM EDT 6:46 PM EDT
Civil Twilight 7:17 AM EDT 7:10 PM EDT
Nautical Twilight 6:49 AM EDT 7:38 PM EDT
Astronomical Twilight 6:22 AM EDT 8:05 PM EDT
Moon 3:12 PM EDT (11/1) 2:06 AM EDT (11/1)
Length of Visible Light 11h 52m
Length of Day
11h 04m
Waxing Gibbous, 67% of the Moon is Illuminated
Nov 1
Waxing Gibbous
Nov 6
Full
Nov 14
Last Quarter
Nov 22
New
Nov 29
First Quarter

Hourly Weather History & Observations

Time (EDT) Temp. Dew Point Humidity Pressure Visibility Wind Dir Wind Speed Gust Speed Precip Events Conditions
12:53 AM 66.2 °F 48.2 °F 52% 29.92 in 10.0 mi WNW 6.9 mph - N/A   Scattered Clouds
1:53 AM 66.0 °F 48.0 °F 52% 29.91 in 10.0 mi WNW 8.1 mph - N/A   Clear
2:53 AM 66.0 °F 48.9 °F 54% 29.91 in 10.0 mi WNW 6.9 mph - N/A   Mostly Cloudy
3:53 AM 66.0 °F 54.0 °F 65% 29.91 in 10.0 mi NW 11.5 mph 23.0 mph 0.00 in   Overcast
4:53 AM 68.0 °F 53.1 °F 59% 29.90 in 10.0 mi West 9.2 mph - N/A   Partly Cloudy
5:53 AM 64.0 °F 57.9 °F 80% 29.93 in 8.0 mi North 13.8 mph 21.9 mph 0.03 in Rain Light Rain
6:53 AM 64.0 °F 57.0 °F 78% 29.96 in 10.0 mi NNW 16.1 mph 23.0 mph 0.00 in   Overcast
7:53 AM 64.0 °F 52.0 °F 65% 30.00 in 10.0 mi NW 21.9 mph 33.4 mph N/A   Partly Cloudy
8:53 AM 64.0 °F 50.0 °F 60% 30.02 in 10.0 mi NW 17.3 mph 26.5 mph N/A   Mostly Cloudy
9:53 AM 61.0 °F 46.9 °F 60% 30.05 in 10.0 mi NNW 31.1 mph 40.3 mph N/A   Overcast
10:53 AM 61.0 °F 41.0 °F 48% 30.08 in 10.0 mi NNW 25.3 mph 35.7 mph N/A   Clear
11:53 AM 62.1 °F 41.0 °F 46% 30.08 in 10.0 mi NW 21.9 mph 34.5 mph N/A   Clear
12:53 PM 62.1 °F 39.9 °F 44% 30.08 in 10.0 mi NNW 21.9 mph 34.5 mph N/A   Clear
1:53 PM 63.0 °F 43.0 °F 48% 30.06 in 10.0 mi NW 21.9 mph 29.9 mph N/A   Partly Cloudy
2:53 PM 63.0 °F 41.0 °F 45% 30.04 in 10.0 mi NW 19.6 mph 29.9 mph N/A   Partly Cloudy
3:53 PM 63.0 °F 39.0 °F 41% 30.04 in 10.0 mi NW 26.5 mph 33.4 mph N/A   Partly Cloudy
4:53 PM 62.1 °F 39.9 °F 44% 30.04 in 10.0 mi NW 21.9 mph 33.4 mph N/A   Clear
5:53 PM 60.1 °F 41.0 °F 49% 30.06 in 10.0 mi NNW 21.9 mph 29.9 mph N/A   Clear
6:53 PM 59.0 °F 41.0 °F 51% 30.08 in 10.0 mi NNW 17.3 mph 26.5 mph N/A   Clear
7:53 PM 57.9 °F 42.1 °F 56% 30.10 in 10.0 mi North 15.0 mph 23.0 mph N/A   Clear
8:53 PM 57.9 °F 43.0 °F 58% 30.13 in 10.0 mi NNW 13.8 mph - N/A   Clear
9:53 PM 57.9 °F 43.0 °F 58% 30.15 in 10.0 mi North 13.8 mph - N/A   Clear
10:53 PM 57.0 °F 41.0 °F 55% 30.19 in 10.0 mi NNE 12.7 mph - N/A   Clear
11:53 PM 55.0 °F 41.0 °F 59% 30.21 in 10.0 mi North 10.4 mph - N/A   Clear